When you browse on this site, cookies collect data to enhance your experience and personalize the content and advertising you see.
Visit our Privacy Policy to learn more. By continuing to use the site, you agree to this use of cookies and data.
  • In Hungary
  • List of Countries
  • For 7 days
  • Water Temperature
  • Satellite Maps
  • Weather Map
  • News
  • Weather Widgets
  • user-avatar
    Login

    Hourly Weather Lahaur

    Today, 16 January, Wednesday

    Time Temperature Precipitation Wind Pressure Humidity
    00:00 +13°C° 0 mm 1 mps 743 mmHg 20%
    01:00 +12°C° 0 mm 1 mps 743 mmHg 21%
    02:00 +12°C° 0 mm 1 mps 743 mmHg 22%
    03:00 +11°C° 0 mm 0 mps 743 mmHg 23%
    04:00 +10°C° 0 mm 0 mps 743 mmHg 23%
    05:00 +10°C° 0 mm 0 mps 743 mmHg 23%
    06:00 +11°C° 0 mm 0 mps 743 mmHg 24%
    07:00 +12°C° 0 mm 1 mps 743 mmHg 25%
    08:00 +12°C° 0 mm 1 mps 744 mmHg 26%
    09:00 +14°C° 0 mm 1 mps 744 mmHg 24%
    10:00 +16°C° 0 mm 1 mps 744 mmHg 22%
    11:00 +19°C° 0 mm 1 mps 744 mmHg 21%
    12:00 +20°C° 0 mm 1 mps 744 mmHg 20%
    13:00 +21°C° 0 mm 1 mps 744 mmHg 19%
    14:00 +22°C° 0 mm 1 mps 744 mmHg 19%
    15:00 +21°C° 0 mm 1 mps 743 mmHg 22%
    16:00 +20°C° 0 mm 1 mps 743 mmHg 25%
    17:00 +18°C° 0 mm 1 mps 743 mmHg 28%
    18:00 +16°C° 0 mm 1 mps 743 mmHg 32%
    19:00 +15°C° 0 mm 1 mps 744 mmHg 35%
    20:00 +14°C° 0 mm 1 mps 744 mmHg 39%
    21:00 +13°C° 0 mm 1 mps 744 mmHg 41%
    22:00 +13°C° 0 mm 1 mps 744 mmHg 43%
    23:00 +12°C° 0 mm 1 mps 745 mmHg 45%

    Tomorrow, 17 January, Thursday

    Time Temperature Precipitation Wind Pressure Humidity
    00:00 +12°C° 0 mm 1 mps 744 mmHg 47%
    01:00 +11°C° 0 mm 1 mps 744 mmHg 49%
    02:00 +11°C° 0 mm 1 mps 744 mmHg 50%
    03:00 +10°C° 0 mm 1 mps 744 mmHg 51%
    04:00 +10°C° 0 mm 1 mps 744 mmHg 52%
    05:00 +10°C° 0 mm 1 mps 744 mmHg 53%
    06:00 +10°C° 0 mm 1 mps 744 mmHg 53%
    07:00 +11°C° 0 mm 1 mps 744 mmHg 53%
    08:00 +11°C° 0 mm 1 mps 744 mmHg 53%
    09:00 +14°C° 0 mm 1 mps 744 mmHg 46%
    10:00 +18°C° 0 mm 1 mps 744 mmHg 40%
    11:00 +20°C° 0 mm 1 mps 745 mmHg 34%
    12:00 +22°C° 0 mm 1 mps 744 mmHg 30%
    13:00 +23°C° 0 mm 2 mps 743 mmHg 27%
    14:00 +24°C° 0 mm 2 mps 743 mmHg 24%
    15:00 +23°C° 0 mm 2 mps 742 mmHg 25%
    16:00 +22°C° 0 mm 1 mps 742 mmHg 26%
    17:00 +20°C° 0 mm 1 mps 742 mmHg 28%
    18:00 +19°C° 0 mm 1 mps 742 mmHg 28%
    19:00 +18°C° 0 mm 1 mps 742 mmHg 28%
    20:00 +15°C° 0 mm 1 mps 743 mmHg 28%
    21:00 +15°C° 0 mm 1 mps 743 mmHg 29%
    22:00 +14°C° 0 mm 1 mps 743 mmHg 31%
    23:00 +14°C° 0 mm 1 mps 743 mmHg 32%

    Day after tomorrow, 18 January, Friday

    Time Temperature Precipitation Wind Pressure Humidity
    00:00 +13°C° 0 mm 1 mps 743 mmHg 34%
    01:00 +13°C° 0 mm 1 mps 743 mmHg 36%
    02:00 +12°C° 0 mm 1 mps 743 mmHg 38%
    03:00 +12°C° 0 mm 1 mps 743 mmHg 39%
    04:00 +12°C° 0 mm 1 mps 743 mmHg 40%
    05:00 +11°C° 0 mm 1 mps 743 mmHg 41%
    06:00 +12°C° 0 mm 1 mps 743 mmHg 41%
    07:00 +12°C° 0 mm 1 mps 744 mmHg 41%
    08:00 +12°C° 0 mm 1 mps 744 mmHg 41%
    09:00 +15°C° 0 mm 1 mps 744 mmHg 36%
    10:00 +18°C° 0 mm 1 mps 745 mmHg 31%
    11:00 +20°C° 0 mm 1 mps 745 mmHg 26%
    12:00 +21°C° 0 mm 1 mps 745 mmHg 25%
    13:00 +21°C° 0 mm 2 mps 744 mmHg 25%
    14:00 +21°C° 0 mm 2 mps 744 mmHg 24%
    15:00 +20°C° 0 mm 2 mps 743 mmHg 26%
    16:00 +19°C° 0 mm 2 mps 743 mmHg 28%
    17:00 +18°C° 0 mm 2 mps 743 mmHg 30%
    18:00 +18°C° 0 mm 1 mps 744 mmHg 30%
    19:00 +16°C° 0 mm 1 mps 744 mmHg 31%
    20:00 +15°C° 0 mm 1 mps 744 mmHg 31%
    21:00 +14°C° 0 mm 1 mps 744 mmHg 30%
    22:00 +14°C° 0 mm 1 mps 744 mmHg 30%
    23:00 +13°C° 0 mm 1 mps 744 mmHg 29%

    19 January, Saturday

    Time Temperature Precipitation Wind Pressure Humidity
    00:00 +13°C° 0 mm 1 mps 744 mmHg 29%
    01:00 +13°C° 0 mm 1 mps 744 mmHg 29%
    02:00 +12°C° 0 mm 1 mps 744 mmHg 29%
    03:00 +12°C° 0 mm 1 mps 744 mmHg 29%
    04:00 +12°C° 0 mm 1 mps 743 mmHg 29%
    05:00 +12°C° 0 mm 1 mps 743 mmHg 29%
    06:00 +13°C° 0 mm 1 mps 744 mmHg 30%
    07:00 +13°C° 0 mm 1 mps 744 mmHg 31%
    08:00 +13°C° 0 mm 2 mps 745 mmHg 32%
    09:00 +15°C° 0 mm 2 mps 745 mmHg 31%
    10:00 +17°C° 0 mm 2 mps 745 mmHg 31%
    11:00 +18°C° 0 mm 3 mps 745 mmHg 30%
    12:00 +19°C° 0 mm 3 mps 745 mmHg 30%
    13:00 +20°C° 0 mm 3 mps 744 mmHg 31%
    14:00 +21°C° 0 mm 3 mps 744 mmHg 31%
    15:00 +20°C° 0 mm 2 mps 744 mmHg 35%
    16:00 +19°C° 0 mm 2 mps 743 mmHg 38%
    17:00 +20°C° 0 mm 1 mps 743 mmHg 41%
    18:00 +18°C° 0 mm 1 mps 743 mmHg 43%
    19:00 +16°C° 0 mm 1 mps 744 mmHg 45%
    20:00 +14°C° 0 mm 0 mps 744 mmHg 48%
    21:00 +14°C° 0 mm 0 mps 744 mmHg 47%
    22:00 +13°C° 0 mm 0 mps 744 mmHg 47%
    23:00 +13°C° 0 mm 0 mps 744 mmHg 47%

    20 January, Sunday

    Time Temperature Precipitation Wind Pressure Humidity
    00:00 +14°C° 0 mm 1 mps 744 mmHg 46%
    01:00 +14°C° 0 mm 1 mps 744 mmHg 45%
    02:00 +14°C° 0 mm 2 mps 744 mmHg 45%
    03:00 +14°C° 0 mm 1 mps 744 mmHg 45%
    04:00 +14°C° 0 mm 1 mps 744 mmHg 45%
    05:00 +14°C° 0 mm 1 mps 743 mmHg 45%
    06:00 +14°C° 0 mm 1 mps 744 mmHg 46%
    07:00 +14°C° 0 mm 1 mps 744 mmHg 46%
    08:00 +14°C° 0 mm 1 mps 744 mmHg 47%
    09:00 +16°C° 0 mm 1 mps 744 mmHg 43%
    10:00 +19°C° 0 mm 1 mps 744 mmHg 39%
    11:00 +19°C° 0 mm 0 mps 745 mmHg 36%
    12:00 +22°C° 0 mm 1 mps 744 mmHg 35%
    13:00 +22°C° 0 mm 1 mps 743 mmHg 34%
    14:00 +23°C° 0 mm 2 mps 742 mmHg 33%
    15:00 +21°C° 0 mm 2 mps 742 mmHg 36%
    16:00 +20°C° 0 mm 2 mps 742 mmHg 40%
    17:00 +20°C° 0 mm 2 mps 742 mmHg 43%
    18:00 +18°C° 0 mm 2 mps 742 mmHg 47%
    19:00 +18°C° 0 mm 1 mps 742 mmHg 50%
    20:00 +16°C° 0 mm 1 mps 742 mmHg 53%
    21:00 +16°C° 0 mm 1 mps 742 mmHg 53%
    22:00 +15°C° 0 mm 1 mps 742 mmHg 53%
    23:00 +15°C° 0 mm 1 mps 742 mmHg 53%

    21 January, Monday

    Time Temperature Precipitation Wind Pressure Humidity
    00:00 +15°C° 0.1 mm 1 mps 742 mmHg 55%
    01:00 +14°C° 0.1 mm 1 mps 742 mmHg 56%
    02:00 +14°C° 0.1 mm 1 mps 742 mmHg 57%
    03:00 +14°C° 0.1 mm 1 mps 742 mmHg 60%
    04:00 +14°C° 0.1 mm 2 mps 741 mmHg 63%
    05:00 +14°C° 0.1 mm 2 mps 741 mmHg 65%
    06:00 +14°C° 0.6 mm 2 mps 742 mmHg 71%
    07:00 +14°C° 0.6 mm 2 mps 742 mmHg 76%
    08:00 +14°C° 0.6 mm 2 mps 743 mmHg 82%
    09:00 +14°C° 0.5 mm 3 mps 743 mmHg 77%
    10:00 +15°C° 0.5 mm 4 mps 743 mmHg 73%
    11:00 +17°C° 0.5 mm 4 mps 743 mmHg 69%
    12:00 +18°C° 0.5 mm 4 mps 743 mmHg 67%
    13:00 +17°C° 0.5 mm 5 mps 742 mmHg 65%
    14:00 +17°C° 0.5 mm 5 mps 741 mmHg 63%
    15:00 +16°C° 1.3 mm 5 mps 741 mmHg 69%
    16:00 +15°C° 1.3 mm 4 mps 740 mmHg 74%
    17:00 +14°C° 1.3 mm 4 mps 740 mmHg 80%
    18:00 +14°C° 1.8 mm 4 mps 740 mmHg 82%
    19:00 +13°C° 1.8 mm 4 mps 741 mmHg 84%
    20:00 +12°C° 1.8 mm 3 mps 741 mmHg 86%
    21:00 +12°C° 1.1 mm 3 mps 741 mmHg 86%
    22:00 +12°C° 1.1 mm 3 mps 741 mmHg 86%
    23:00 +12°C° 1.1 mm 3 mps 741 mmHg 87%
    Show more